Location: Kott?ru
(16.6209°N, 80.6208°E)
Time: 18:28:57
(UTC+00:00)

Oscar 19 - Visible Passes

Search period start: 30 May 2024 00:00
Search period end: 09 June 2024 00:00
Orbit: 772 x 787 km, 98.9° (Epoch: 30 May)

Date Brightness Start Highest point End Pass type
(mag) Time Alt. Az. Time Alt. Az. Time Alt. Az.
30 May 13.1 22:39:00 10° NE 22:42:35 19° E 22:46:09 10° SE visible
01 Jun 11.6 23:11:57 10° NNE 23:16:53 48° ESE 23:21:48 10° S visible
02 Jun 13.0 22:40:43 10° NE 22:44:24 20° E 22:48:02 10° SE visible
04 Jun 11.6 23:13:44 10° NNE 23:18:41 50° E 23:23:37 10° S visible
05 Jun 13.0 22:42:27 10° NE 22:46:12 20° E 22:49:55 10° SSE visible
07 Jun 11.5 23:15:31 10° NNE 23:20:29 51° ESE 23:25:26 10° S visible
08 Jun 13.0 22:44:10 10° NE 22:47:59 21° E 22:51:47 10° SSE visible
